{"data":{"norad_id":53154,"epoch":"2026-09-19T19:55:13.226880Z","epoch_age_seconds":130066,"freshness":"FRESH","line1":"1 53154U 22083Y   26262.83001420  .00001250  00000+0  46734-4 0  9994","line2":"2 53154  53.1620   5.0160 0001142  92.4985 267.6149 15.35400314230763","mean_motion":15.35400314,"eccentricity":0.0001142,"inclination_deg":53.162,"raan_deg":5.016,"arg_perigee_deg":92.4985,"mean_anomaly_deg":267.6149,"bstar":4.6734e-5,"rev_number":23076,"period_min":93.786616224438,"perigee_km":458.95082587319,"apogee_km":460.51259508666,"semimajor_km":6837.8687104799,"source":"CELESTRAK","updated_at":"2026-09-20T09:00:40.182381Z"}}